Location: São Paulo
(23.5507°S, 46.6334°W)
Time: 06:44:05
(UTC-03:00)

Explorer 7 - Pass Details

Date: 19 February 2026
Orbit: 430 x 541 km, 50.2° (Epoch: 10 March)

Event Time Altitude Azimuth Distance (km) Brightness Sun altitude
Rises 09:23:04 0° 211° (SSW) 2,521 9.9 46.1°
Reaches altitude 10° 09:25:27 10° 199° (SSW) 1,618 9.1 46.7°
Maximum altitude 09:28:41 29° 137° (SE) 849 8.6 47.4°
Drops below altitude 10° 09:31:48 10° 74° (ENE) 1,558 10.1 48.1°
Sets 09:34:04 0° 62° (ENE) 2,408 10.7 48.6°
